Location: Balaclava NSW 2575, Australia
(34.4510°S, 150.4953°E)
Time: 02:01:47
(UTC+10:00)

A-11 Canister half - Pass Details

Date: 14 June 2021
Orbit: 1513 x 1687 km, 47.2° (Epoch: 28 July)

Event Time Altitude Azimuth Distance (km) Brightness Sun altitude
Rises 20:21:15 0° 259° (W) 4,755 12.4 -41.7°
Reaches altitude 10° 20:24:37 10° 251° (WSW) 3,797 11.6 -42.4°
Enters shadow 20:31:51 37° 205° (SSW) 2,342 9.9 -43.9°
